This demonstration page uses our WeatherBlox Daily Observations layout. Learn more.

Left ArrowRight Arrow

44.89941, -97.11507

Hourly Observations for May 24, 2019

Temp ( °F °C ) Dew Point ( °F °C ) Humidity (%) Winds ( mph kmh ) Pressure ( in mb ) Visibility ( mi km ) Precip ( " mm )
12:53 am 00:53 Clear 49 9.4 45 7.2 86 86 E 7 11 30.01 1016 10 16 0.00 0.00
1:53 am 01:53 Cloudy 49 9.4 45 7.2 86 86 ESE 7 11 30.02 1017 10 16 0.00 0.00
2:11 am 02:11 Cloudy 49 9.4 45 7.2 86 86 ESE 7 11 30.02 1017 10 16 0.00 0.00
2:22 am 02:22 Cloudy 49 9.4 45 7.2 86 86 ESE 8 13 30.00 1016 10 16 0.00 0.00
2:53 am 02:53 Cloudy with Light Rain 49 9.4 45 7.2 86 86 SE 9 15 30.03 1017 10 16 0.00 0.03
3:35 am 03:35 Cloudy with Rain 48 8.9 46 7.8 93 93 ESE 9 15 29.95 1014 6 10 0.11 2.79
3:53 am 03:53 Cloudy with Light Rain 48 8.9 46 7.8 93 93 E 10 17 29.90 1013 9 14 0.13 3.30
4:50 am 04:50 Cloudy 48 9 46 8 94 94 E 10 17 29.90 1012 10 16 0.02 0.51
4:53 am 04:53 Cloudy 49 9.4 46 7.8 90 90 ESE 10 17 29.88 1012 10 16 0.02 0.51
5:12 am 05:12 Cloudy 49 9.4 46 7.8 90 90 ESE 12 19 29.88 1012 10 16 0.00 0.00
5:53 am 05:53 Cloudy with Light Rain 49 9.4 47 8.3 93 93 ESE 13 20 29.86 1011 10 16 0.01 0.25
6:53 am 06:53 Cloudy with Mist and Fog 49 9.4 47 8.3 93 93 ESE 13 20 29.81 1010 6 10 0.00 0.03
7:53 am 07:53 Cloudy with Light Rain 50 10 48 8.9 93 93 ESE 7 11 29.80 1009 4 6 0.00 0.03
8:11 am 08:11 Cloudy with Light Rain 50 10 48 8.9 93 93 SE 8 13 29.81 1009 2 2 0.01 0.25
8:19 am 08:19 Cloudy with Rain 50 10 48 8.9 93 93 SE 7 11 29.81 1009 1 2 0.05 1.27
8:33 am 08:33 Cloudy with Light Rain 50 10 49 9.4 96 96 SSE 7 11 29.81 1009 2 3 0.07 1.78
8:40 am 08:40 Cloudy with Light Rain 50 10 49 9.4 96 96 SSE 8 13 29.81 1009 2 3 0.08 2.03
8:53 am 08:53 Cloudy with Light Rain 50 10 49 9.4 96 96 SSE 8 13 29.80 1009 3 4 0.09 2.29
9:00 am 09:00 Cloudy with Light Rain 51 10.6 49 9.4 92 92 SSE 7 11 29.80 1009 3 4 0.00 0.03
9:11 am 09:11 Cloudy with Mist and Fog 51 10.6 50 10 96 96 SSE 7 11 29.79 1009 4 6 0.00 0.03
9:22 am 09:22 Cloudy with Mist and Fog 51 10.6 50 10 96 96 SSE 8 13 29.78 1008 4 6 0.00 0.03
9:51 am 09:51 Cloudy with Mist and Fog 52 11 52 11 100 100 S 9 15 29.77 1008 3 4 0.00 0.03
9:53 am 09:53 Cloudy with Mist and Fog 52 11.1 51 10.6 97 97 S 12 19 29.78 1009 3 4 0.00 0.03
10:09 am 10:09 Cloudy with Mist and Fog 53 11.7 52 11.1 96 96 S 12 19 29.76 1008 2 3 0.00 0.00
10:17 am 10:17 Cloudy with Mist and Fog 53 11.7 52 11.1 96 96 S 13 20 29.76 1008 3 4 0.00 0.00
10:39 am 10:39 Cloudy with Mist and Fog 54 12.2 53 11.7 97 97 S 10 17 29.75 1007 4 6 0.00 0.00
10:53 am 10:53 Cloudy 55 12.8 53 11.7 93 93 SSW 15 24 29.76 1008 10 16 0.00 0.00
11:41 am 11:41 Mostly Cloudy 59 15 54 12.2 83 83 SSW 15 24 29.71 1006 10 16 0.00 0.03
11:53 am 11:53 Cloudy 58 14.4 52 11.1 81 81 SSW 14 22 29.74 1007 10 16 0.00 0.03
12:53 pm 12:53 Cloudy 60 15.6 52 11.1 75 75 SSW 16 26 29.74 1007 10 16 0.00 0.00
1:32 pm 13:32 Partly Cloudy 62 16.7 54 12.2 75 75 SSW 17 28 29.69 1005 10 16 0.00 0.00
1:53 pm 13:53 Mostly Sunny 64 17.8 54 12.2 70 70 SSW 18 30 29.71 1006 10 16 0.00 0.00
2:53 pm 14:53 Mostly Sunny 65 18.3 55 12.8 70 70 S 16 26 29.70 1006 10 16 0.00 0.00
3:53 pm 15:53 Partly Cloudy 69 20.6 53 11.7 57 57 SSW 22 35 29.69 1006 10 16 0.00 0.00
4:53 pm 16:53 Mostly Sunny 71 21.7 53 11.7 53 53 SSW 22 35 29.65 1004 10 16 0.00 0.00
5:53 pm 17:53 Mostly Sunny 72 22.2 52 11.1 50 50 SW 23 37 29.64 1004 10 16 0.00 0.00
6:53 pm 18:53 Sunny 71 21.7 52 11.1 51 51 SSW 20 31 29.63 1003 10 16 0.00 0.00
7:53 pm 19:53 Sunny 69 20.6 54 12.2 59 59 WSW 15 24 29.65 1004 10 16 0.00 0.00
8:10 pm 20:10 Sunny 68 20 50 10 53 53 WNW 14 22 29.61 1003 10 16 0.00 0.00
8:53 pm 20:53 Sunny 63 17.2 50 10 63 63 W 5 7 29.67 1005 10 16 0.00 0.00
9:53 pm 21:53 Clear 55 12.8 49 9.4 80 80 WSW 6 9 29.70 1006 10 16 0.00 0.00
10:53 pm 22:53 Mostly Cloudy 58 14.4 48 8.9 70 70 W 10 17 29.72 1006 10 16 0.00 0.00
11:53 pm 23:53 Clear 56 13.3 47 8.3 72 72 W 12 19 29.72 1007 10 16 0.00 0.00

Powered by AerisWeather